www.pogodaiklimat.ru
ПОГОДА в Аштабьюле
Время
и дата
08:53 12.04
09:26 12.04
09:53 12.04
10:27 12.04
10:51 12.04
10:53 12.04
11:53 12.04
12:05 12.04
12:53 12.04
13:16 12.04
13:37 12.04
13:53 12.04
14:44 12.04
14:53 12.04
15:04 12.04
15:40 12.04
15:51 12.04
15:53 12.04
16:41 12.04
16:49 12.04
16:53 12.04
17:53 12.04
18:04 12.04
18:12 12.04
18:29 12.04
18:53 12.04
19:53 12.04
20:53 12.04
21:25 12.04
21:35 12.04
21:53 12.04
22:53 12.04
23:53 12.04
00:53 13.04
01:53 13.04
02:53 13.04
03:53 13.04
04:53 13.04
05:53 13.04
06:53 13.04
07:53 13.04
08:53 13.04
09:53 13.04
10:53 13.04
11:53 13.04
12:53 13.04
13:53 13.04
14:53 13.04
Ветер
(напр.,м/с)
Видим. Явления Облачность Т
(С)
Тd
(С)
f
(%)
Тe
(С)
Тes
(С)
Комфортность P
(гПа)
Po
(гПа)
Тmin
(С)
Tmax
(С)
R
(мм)
R24
(мм)
S
(см)
З 9
{14}
10 км слабый дождь, дымка 10/10 390 m
[Ns]
+7.8 +5.6 86 +3 +3 993.4 960.8
З 10
{16}
16 км слабый дождь 10/10 450 m
[Ns]
+8.3 +5.6 83 +3 +3 960.8
З 9
{14}
16 км 10/10 450 м +8.9 +6.1 83 +4 +4 993.6 961.1 0.3
З 9
{16}
16 км слабый дождь 10/10 420 m
[Ns]
+8.9 +5.6 80 +4 +4 961.1
З 9
{15}
16 км слабый дождь 10/10 480 m
[Ns]
+9.0 +6.0 81 +4 +4 961.1
З 9
{15}
16 км слабый дождь 10/10 480 m
[Ns]
+8.9 +6.1 83 +4 +4 993.6 961.1
З 9
{19}
6 км слабый дождь 10/10 390 m
[Ns]
+8.9 +6.1 83 +4 +4 993.8 961.1
З 9
{16}
13 км слабый дождь 10/10 450 m
[Ns]
+8.9 +6.1 83 +4 +4 961.4
З 9
{17}
16 км слабый дождь 10/10 420 m
[Ns]
+8.9 +6.1 83 +4 +4 994.3 961.8 +7.8 +8.9 0.5
З 9
{15}
16 км слабый дождь 10/10 390 m
[Ns]
+8.9 +6.1 83 +4 +4 961.8
З 10
{15}
8 км слабый дождь, дымка 10/10 390 m
[Ns]
+8.3 +6.1 86 +3 +3 961.8
З 11
{14}
6 км слабый дождь, дымка 10/10 390 m
[Ns]
+8.3 +6.1 86 +3 +3 994.8 962.1
З 10
{16}
16 км 10/10 360 м +8.9 +6.1 83 +4 +4 962.1
З 9
{17}
16 км слабый дождь 10/10 450 m
[Ns]
+8.9 +6.1 83 +4 +4 995.2 962.1
З 9
{17}
16 км слабый дождь 10/10 390 m
[Ns]
+8.9 +6.1 83 +4 +4 962.4
З 9
{16}
14 км слабый дождь 10/10 330 m
[Ns]
+8.9 +6.1 83 +4 +4 962.4
З 9
{15}
14 км слабый дождь 10/10 420 m
[Ns]
+9.0 +6.0 81 +4 +4 962.7
З 9
{15}
14 км слабый дождь 10/10 420 m
[Ns]
+8.9 +6.1 83 +4 +4 995.6 962.7 0.8
З 11
{17}
16 км слабый дождь 10/10 480 m
[Ns]
+8.9 +6.1 83 +4 +4 963.1
З 10
{17}
16 км слабый дождь 10/10 420 m
[Ns]
+9.0 +6.0 81 +4 +4 963.4
З 11
{17}
16 км слабый дождь 10/10 420 m
[Ns]
+8.9 +6.1 83 +4 +4 996.3 963.4
З 11
{17}
6 км слабый дождь, дымка 10/10 420 m
[Ns]
+8.3 +6.1 86 +3 +3 997.5 964.4
СЗ 9
{17}
3 км дождь 10/10 420 m
[Ns]
+7.2 +4.4 82 +2 +2 965.0
СЗ 6
{15}
5 км слабый дождь, дымка 10/10 360 m
[Ns]
+6.7 +4.4 85 +2 +2 964.7
З 8
{17}
6 км слабый дождь 10/10 360 m
[Ns]
+8.3 +5.6 83 +4 +4 965.0
З 7
{20}
10 км слабый дождь 10/10 390 m
[Ns]
+8.3 +5.6 83 +4 +4 998.7 965.7 +6.7 +8.9 4.6
З 9
{20}
11 км слабый дождь 10/10 360 m
[Ns]
+7.8 +5.0 82 +3 +3 1000.4 967.3
З 11
{19}
13 км слабый дождь 10/10 390 m
[Ns]
+7.2 +4.4 82 +1 +1 1002.3 969.0
СЗ 10
{19}
16 км слабый дождь 10/10 450 m
[Ns]
+7.2 +4.4 82 +2 +2 969.6
З 10
{20}
14 км слабый дождь 10/10 420 m
[Ns]
+7.2 +4.4 82 +2 +2 969.9
СЗ 9
{19}
16 км слабый дождь 10/10 420 m
[Ns]
+6.7 +4.4 85 +1 +1 1003.6 970.3 1.8
СЗ 9
{16}
11 км слабый дождь 10/10 540 m
[Ns]
+6.1 +2.8 79 0 0 1005.1 971.6
СЗ 9
{17}
13 км слабый дождь 10/10 930 m
[Ns]
+5.6 +0.6 70 0 0 1006.2 972.6
З 10
{15}
16 км 10/10 1200 м +7.2 -1.7 53 +2 +2 1006.5 973.2 +5.6 +7.8 3.6
З 9
{16}
16 км 10/0 2400 m
[Ac]
+7.2 -0.6 58 +2 +2 1006.8 973.6
З 8
{13}
16 км ясно +6.7 -0.6 60 +2 +2 1007.5 974.2
З 7
{14}
16 км ясно +6.7 -0.6 60 +2 +2 1008.1 974.5
З 6
{15}
16 км ясно +6.1 -0.6 62 +2 +2 1008.9 975.5
З 9
{13}
16 км 10/10 1290 м +6.1 0.0 65 +1 +1 1010.0 976.2
З 7
{13}
16 км 10/10 1380 м +6.1 0.0 65 +1 +1 1011.0 977.2 +6.1 +7.2 8.6
З 6
{13}
16 км 10/10 1200 м +6.7 -0.6 60 +3 +3 1011.7 978.1
З 8
{12}
16 км 10/10 1350 м +6.7 0.0 62 +2 +2 1012.6 978.8
СЗ 8
{16}
16 км 2/2 960 м +8.3 +0.6 58 +4 +5 1013.2 979.4
З 10
{16}
16 км 5/5 1050 м +8.3 0.0 56 +4 +4 1014.2 980.4
СЗ 9
{16}
16 км 10/10 1140 м +8.9 0.0 54 +5 +5 1014.4 980.8
З 10
{17}
16 км 8/8 1260 м +10.0 +0.6 52 +6 +6 1014.9 981.1 +6.1 +10.6
З 10
{15}
16 км 8/8 1320 м +10.6 0.0 48 +7 +7 1015.0 981.4
З 7
{13}
16 км 2/2 1440 м +11.7 0.0 44 +9 +12 1014.9 981.1
Местоположение метеостанции Ashtabula County Airport: широта 41.7794 долгота -80.6967 высота над уровнем моря 281 м.
В архиве по умолчанию представлена погода в Аштабьюле за последние 1-2 суток. Обновление информации о фактической погоде в базе происходит ежечасно! Архивные данные за месяц целиком и за предыдущие месяцы Вы можете получить, выбрав интересующий диапазон дат из раскрывающегося списка и нажав кнопку "Ввод!".
Внимание! Архив погоды МЕТАР в базе сайта по станциям, не включенным в климатический монитор, хранится не более 60 дней. Нет смысла пытаться выбрать более раннюю дату.
*Определитесь, кто Вы:
Внимание! Время в таблицах - местное (без учета летнего времени). Для получения всемирного времени необходимо вычесть поправку, которая равна -5 ч.
Смотрите также архив погоды в соседних городах и на ближайших метеорологических станциях:
Партнеры нашего сайта:      
Пояснения к столбцам:
  • Ветер - указаны скорость ветра в м/с - средняя за 10 мин, порывы в срок и между сроками (в фигурных скобках) и направление, откуда дует ветер: С - северный,
  • СВ - северо-восточный, В - восточный, ЮВ - юго-восточный, Ю - южный, ЮЗ - юго-западный, З - западный, СЗ - северо-западный.
  • Видимость - горизонтальная дальность видимости в метрах или километрах. При видимости от 1 до 10 км при отсутствии осадков обычно наблюдается дымка, при ухудшении видимости до 1 км и менее - туман. В сухую погоду видимость может ухудшаться дымом, пылью или мглою.
  • Явления - указаны атмосферные явления, наблюдавшиеся в срок или в последний час перед сроком; фигурными скобками обозначены явления, наблюдавшиеся между сроками (за 1-3 часа до срока); квадратными скобками обозначены град или гололедные отложения с указанием их диаметра в мм.
  • Облачность - указаны через наклонную черту общая и нижняя облачность в баллах и высота нижней границы облаков в метрах; квадратными скобками обозначены формы облаков: Ci - перистые, Cs - перисто-слоистые, Cc - перисто-кучевые, Ac - высококучевые, As - высокослоистые, Sc - слоисто-кучевые, Ns - слоисто-дождевые, Cu - кучевые, Cb - кучево-дождевые. Подробнее классификацию облаков см. в Атласе облаков (PDF).
  • T - Температура воздуха - температура, измеренная на высоте 2 м над землей.
  • Td - Температура точки росы - температура, при понижении до которой содержащийся в воздухе водяной пар достигнет насыщения.
  • f - Относительная влажность воздуха - влажноcть воздуха, измеренная на высоте 2 м над землей.
  • Te - Эффективная температура - температура, которую ощущает одетый по сезону человек в тени. Характеристика душности погоды. При расчете учитывается влияние влажности воздуха и скорости ветра на теплоощущения человека.
  • Tes - Эффективная температура на солнце - температура, которую ощущает человек, с поправкой на солнечный нагрев. Характеристика знойности погоды. Зависит от высоты солнца над горизонтом, облачности и скорости ветра. Ночью, в пасмурную погоду, а также при ветре 12 м/с и более поправка равна нулю.
  • P - Атмосферное давление - приведенное к уровню моря атмосферное давление.
  • Po - Атмосферное давление - измеренное на уровне метеостанции атмосферное давление.
  • Tmin - Минимальная температура - минимум температуры воздуха на высоте 2 м над землей.
  • Tmax - Максимальная температура - максимум температуры воздуха на высоте 2 м над землей.
  • R - Количество осадков - Количество выпавших осадков за период времени, мм. При наведении курсора мыши на число - период времени, за который выпало указанное количество осадков.
  • R24 - Количество осадков - Количество выпавших осадков за 24 часа, мм.
  • S - Снежный покров - Высота снежного покрова, см. При наведении курсора мыши на число - состояние снежного покрова и степень покрытия местности в баллах.